TimeCET,TemperatureF,Dew PointF,Humidity,Sea Level PressureIn,VisibilityMPH,Wind Direction,Wind SpeedMPH,Gust SpeedMPH,PrecipitationIn,Events,Conditions,WindDirDegrees,DateUTC
12:00 AM,50.0,46.4,87,29.98,6.2,Variable,1.2,-,N/A,,Scattered Clouds,0,2013-03-03 23:00:00
1:00 AM,49,45,82,29.98,9,East,2.3,,,,Scattered Clouds,90,2013-03-04 00:00:00
1:00 AM,50.0,48.2,94,29.98,6.2,East,2.3,-,N/A,,Scattered Clouds,80,2013-03-04 00:00:00
1:30 AM,50.0,46.4,87,29.95,6.2,ENE,4.6,-,N/A,,Scattered Clouds,70,2013-03-04 00:30:00
2:00 AM,50.0,48.2,94,29.95,6.2,East,6.9,-,N/A,,Partly Cloudy,80,2013-03-04 01:00:00
2:30 AM,48.2,46.4,93,29.95,6.2,East,5.8,-,N/A,,Partly Cloudy,80,2013-03-04 01:30:00
3:00 AM,48.2,46.4,93,29.95,6.2,East,4.6,-,N/A,,Scattered Clouds,80,2013-03-04 02:00:00
3:30 AM,48.2,46.4,93,29.92,6.2,ENE,2.3,-,N/A,,Scattered Clouds,70,2013-03-04 02:30:00
4:00 AM,50.0,48.2,94,29.92,6.2,East,3.5,-,N/A,,Scattered Clouds,80,2013-03-04 03:00:00
4:30 AM,50.0,48.2,94,29.92,6.2,East,3.5,-,N/A,,Scattered Clouds,80,2013-03-04 03:30:00
5:00 AM,51.8,48.2,88,29.92,6.2,ENE,3.5,-,N/A,,Scattered Clouds,70,2013-03-04 04:00:00
5:30 AM,51.8,50.0,94,29.92,6.2,East,4.6,-,N/A,,Scattered Clouds,80,2013-03-04 04:30:00
6:00 AM,51.8,50.0,94,29.89,6.2,ENE,4.6,-,N/A,,Scattered Clouds,70,2013-03-04 05:00:00
6:30 AM,50.0,48.2,94,29.89,6.2,East,5.8,-,N/A,,Scattered Clouds,80,2013-03-04 05:30:00
7:00 AM,49,46,86,29.90,12,ENE,6.9,,,,Scattered Clouds,70,2013-03-04 06:00:00
7:00 AM,50.0,48.2,94,29.89,6.2,ENE,8.1,-,N/A,,Partly Cloudy,70,2013-03-04 06:00:00
7:30 AM,50.0,48.2,94,29.89,6.2,East,4.6,-,N/A,,Partly Cloudy,90,2013-03-04 06:30:00
8:00 AM,50.0,48.2,94,29.89,6.2,East,3.5,-,N/A,,Scattered Clouds,80,2013-03-04 07:00:00
8:30 AM,55.4,51.8,88,29.89,6.2,ENE,8.1,-,N/A,,Scattered Clouds,60,2013-03-04 07:30:00
9:30 AM,57.2,53.6,88,29.89,6.2,ENE,11.5,-,N/A,,Scattered Clouds,60,2013-03-04 08:30:00
10:00 AM,59.0,51.8,77,29.89,6.2,ENE,12.7,-,N/A,,Scattered Clouds,70,2013-03-04 09:00:00
10:30 AM,60.8,53.6,77,29.86,6.2,ENE,13.8,-,N/A,,Partly Cloudy,70,2013-03-04 09:30:00
11:00 AM,60.8,51.8,72,29.86,6.2,ENE,13.8,-,N/A,,Partly Cloudy,70,2013-03-04 10:00:00
11:30 AM,62.6,53.6,72,29.86,6.2,ENE,16.1,-,N/A,,Partly Cloudy,70,2013-03-04 10:30:00
12:00 PM,62.6,53.6,72,29.86,6.2,East,15.0,-,N/A,,Partly Cloudy,80,2013-03-04 11:00:00
12:30 PM,62.6,53.6,72,29.83,6.2,ENE,15.0,-,N/A,,Partly Cloudy,70,2013-03-04 11:30:00
1:00 PM,63,50,54,29.85,17,ENE,17.3,,,,Partly Cloudy,70,2013-03-04 12:00:00
1:00 PM,64.4,53.6,68,29.83,6.2,ENE,13.8,-,N/A,,Partly Cloudy,70,2013-03-04 12:00:00
1:30 PM,62.6,53.6,72,29.83,6.2,East,11.5,-,N/A,,Partly Cloudy,80,2013-03-04 12:30:00
2:00 PM,62.6,53.6,72,29.80,6.2,East,10.4,-,N/A,,Partly Cloudy,80,2013-03-04 13:00:00
2:30 PM,62.6,53.6,72,29.80,6.2,East,12.7,-,N/A,,Partly Cloudy,80,2013-03-04 13:30:00
3:00 PM,62.6,53.6,72,29.77,6.2,East,12.7,-,N/A,,Partly Cloudy,80,2013-03-04 14:00:00
3:30 PM,60.8,53.6,77,29.77,6.2,East,11.5,-,N/A,,Partly Cloudy,80,2013-03-04 14:30:00
4:00 PM,60.8,53.6,77,29.77,6.2,ENE,12.7,-,N/A,,Partly Cloudy,70,2013-03-04 15:00:00
4:30 PM,60.8,53.6,77,29.77,6.2,East,8.1,-,N/A,,Partly Cloudy,90,2013-03-04 15:30:00
5:00 PM,59.0,53.6,82,29.77,5.6,East,5.8,-,N/A,,Partly Cloudy,90,2013-03-04 16:00:00
5:30 PM,59.0,53.6,82,29.74,5.6,East,8.1,-,N/A,,Partly Cloudy,90,2013-03-04 16:30:00
6:00 PM,59.0,53.6,82,29.74,5.6,ESE,11.5,-,N/A,,Partly Cloudy,110,2013-03-04 17:00:00
6:30 PM,59.0,51.8,77,29.74,6.2,ESE,15.0,-,N/A,,Partly Cloudy,120,2013-03-04 17:30:00
7:00 PM,57,49,65,29.75,6,ESE,15.0,,,,Mist,110,2013-03-04 18:00:00
7:00 PM,59.0,51.8,77,29.74,5.6,ESE,15.0,-,N/A,,Partly Cloudy,120,2013-03-04 18:00:00
7:30 PM,59.0,51.8,77,29.74,5.6,ESE,12.7,-,N/A,,Partly Cloudy,110,2013-03-04 18:30:00
8:00 PM,59.0,51.8,77,29.74,5.6,ESE,13.8,-,N/A,,Partly Cloudy,110,2013-03-04 19:00:00
8:30 PM,57.2,51.8,82,29.74,5.6,ESE,12.7,-,N/A,,Partly Cloudy,120,2013-03-04 19:30:00
9:00 PM,59.0,53.6,82,29.74,5.6,ESE,12.7,-,N/A,Rain,Light Rain,120,2013-03-04 20:00:00
9:30 PM,57.2,53.6,88,29.74,5.6,ESE,10.4,-,N/A,Rain,Rain,110,2013-03-04 20:30:00
10:00 PM,57.2,53.6,88,29.74,5.6,ENE,9.2,-,N/A,Rain,Light Rain,70,2013-03-04 21:00:00
10:30 PM,57.2,53.6,88,29.71,5.6,NE,12.7,-,N/A,,Partly Cloudy,40,2013-03-04 21:30:00
11:00 PM,57.2,53.6,88,29.71,5.6,ENE,10.4,-,N/A,,Partly Cloudy,60,2013-03-04 22:00:00
11:30 PM,57.2,53.6,88,29.71,5.6,ENE,10.4,-,N/A,,Partly Cloudy,60,2013-03-04 22:30:00